Location: Unspecified
(0.0000°N, 0.0000°E)
Time: 02:23:11
(UTC+00:00)

Vanguard 2 - Pass Details

Date: 22 December 2018
Orbit: 553 x 2939 km, 32.9° (Epoch: 16 January)

Event Time Altitude Azimuth Distance (km) Brightness Sun altitude
Rises 12:53:08 0° 232° (SW) 5,602 12.3 63.1°
Reaches altitude 10° 12:57:29 10° 230° (SW) 4,211 11.9 62.5°
Maximum altitude 13:07:52 72° 147° (SSE) 1,268 10.0 61.2°
Drops below altitude 10° 13:13:55 10° 63° (ENE) 2,535 10.0 60.3°
Sets 13:15:57 0° 61° (ENE) 3,276 10.5 60.0°
